Time,TemperatureF,DewpointF,PressureIn,WindDirection,WindDirectionDegrees,WindSpeedMPH,WindSpeedGustMPH,Humidity,HourlyPrecipIn,Conditions,Clouds,dailyrainin,SoftwareType,DateUTC
2013-09-29 00:02:00,-999.0,-99.9,30.00,NE,35,5.0,7.0,-999,-99.99,,,-99.99,,2013-09-29 04:02:00,
2013-09-29 00:24:00,74.0,67.0,30.00,NNE,33,4.0,6.0,80,-99.99,,,-99.99,,2013-09-29 04:24:00,
2013-09-29 00:34:00,74.0,67.0,30.00,NNE,33,4.0,6.0,80,-99.99,,,-99.99,,2013-09-29 04:34:00,
2013-09-29 00:54:00,73.0,67.0,30.00,NE,37,3.0,5.0,81,-99.99,,,-99.99,,2013-09-29 04:54:00,
2013-09-29 01:22:00,73.0,67.0,29.99,NNE,26,5.0,7.0,81,-99.99,,,-99.99,,2013-09-29 05:22:00,
2013-09-29 01:34:00,73.0,67.0,29.99,NNE,26,5.0,7.0,81,-99.99,,,-99.99,,2013-09-29 05:34:00,
2013-09-29 01:53:00,72.0,67.0,29.99,WNW,302,4.0,5.0,85,-99.99,,,-99.99,,2013-09-29 05:53:00,
2013-09-29 02:22:00,71.0,67.0,29.98,West,280,2.0,3.0,88,-99.99,,,-99.99,,2013-09-29 06:22:00,
2013-09-29 02:52:00,71.0,68.0,29.97,NE,37,3.0,5.0,89,-99.99,,,-99.99,,2013-09-29 06:52:00,
2013-09-29 03:22:00,71.0,68.0,29.97,NNW,337,5.0,7.0,88,-99.99,,,-99.99,,2013-09-29 07:22:00,
2013-09-29 03:32:00,71.0,68.0,29.97,NNW,337,5.0,7.0,88,-99.99,,,-99.99,,2013-09-29 07:32:00,
2013-09-29 03:52:00,71.0,68.0,29.96,WSW,248,4.0,7.0,87,-99.99,,,-99.99,,2013-09-29 07:52:00,
2013-09-29 04:22:00,71.0,67.0,29.96,WSW,248,6.0,7.0,87,-99.99,,,-99.99,,2013-09-29 08:22:00,
2013-09-29 04:32:00,71.0,67.0,29.96,WSW,248,6.0,7.0,87,-99.99,,,-99.99,,2013-09-29 08:32:00,
2013-09-29 04:52:00,70.0,67.0,29.96,NNW,333,5.0,6.0,88,-99.99,,,-99.99,,2013-09-29 08:52:00,
2013-09-29 05:23:00,70.0,67.0,29.95,NNW,338,3.0,4.0,89,-99.99,,,-99.99,,2013-09-29 09:23:00,
2013-09-29 05:33:00,70.0,67.0,29.95,NNW,338,3.0,4.0,89,-99.99,,,-99.99,,2013-09-29 09:33:00,
2013-09-29 05:54:00,69.0,66.0,29.95,NW,311,3.0,4.0,90,-99.99,,,-99.99,,2013-09-29 09:54:00,
2013-09-29 06:23:00,69.0,66.0,29.96,NNW,332,5.0,6.0,90,-99.99,,,-99.99,,2013-09-29 10:23:00,
2013-09-29 06:53:00,69.0,66.0,29.97,NNW,334,4.0,6.0,91,-99.99,,,-99.99,,2013-09-29 10:53:00,
2013-09-29 07:22:00,69.0,66.0,29.98,NW,326,4.0,5.0,91,-99.99,,,-99.99,,2013-09-29 11:22:00,
2013-09-29 07:33:00,69.0,66.0,29.98,NW,326,4.0,5.0,91,-99.99,,,-99.99,,2013-09-29 11:33:00,
2013-09-29 07:52:00,68.0,66.0,29.98,NNW,330,5.0,6.0,91,-99.99,,,-99.99,,2013-09-29 11:52:00,
2013-09-29 08:21:00,68.0,66.0,29.99,NW,324,4.0,5.0,91,-99.99,,,-99.99,,2013-09-29 12:21:00,
2013-09-29 08:32:00,68.0,66.0,29.99,NW,324,4.0,5.0,91,-99.99,,,-99.99,,2013-09-29 12:32:00,
2013-09-29 08:52:00,69.0,67.0,29.99,NW,310,3.0,5.0,91,-99.99,,,-99.99,,2013-09-29 12:52:00,
2013-09-29 09:22:00,71.0,68.0,30.00,NNW,338,4.0,6.0,90,-99.99,,,-99.99,,2013-09-29 13:22:00,
2013-09-29 09:32:00,71.0,68.0,30.00,NNW,338,4.0,6.0,90,-99.99,,,-99.99,,2013-09-29 13:32:00,
2013-09-29 09:53:00,73.0,69.0,30.00,NW,322,6.0,9.0,86,-99.99,,,-99.99,,2013-09-29 13:53:00,
2013-09-29 10:22:00,76.0,70.0,30.00,WNW,289,6.0,8.0,81,-99.99,,,-99.99,,2013-09-29 14:22:00,
2013-09-29 10:32:00,76.0,70.0,30.00,WNW,289,6.0,8.0,81,-99.99,,,-99.99,,2013-09-29 14:32:00,
2013-09-29 10:52:00,79.0,70.0,30.01,SE,133,5.0,7.0,73,-99.99,,,-99.99,,2013-09-29 14:52:00,
2013-09-29 11:22:00,80.0,68.0,30.01,SE,130,5.0,7.0,65,-99.99,,,-99.99,,2013-09-29 15:22:00,
2013-09-29 11:45:00,82.0,67.0,30.01,South,171,3.0,7.0,61,-99.99,,,-99.99,,2013-09-29 15:45:00,
2013-09-29 12:14:00,83.0,65.0,30.01,SSE,160,3.0,5.0,54,-99.99,,,-99.99,,2013-09-29 16:14:00,
2013-09-29 12:24:00,83.0,65.0,30.01,SSE,160,3.0,5.0,54,-99.99,,,-99.99,,2013-09-29 16:24:00,
2013-09-29 12:54:00,84.0,65.0,30.00,ENE,59,4.0,6.0,52,-99.99,,,-99.99,,2013-09-29 16:54:00,
2013-09-29 13:24:00,84.0,63.0,30.00,South,176,4.0,9.0,49,-99.99,,,-99.99,,2013-09-29 17:24:00,
2013-09-29 13:43:00,85.0,64.0,29.98,East,94,3.0,6.0,49,-99.99,,,-99.99,,2013-09-29 17:43:00,
2013-09-29 14:22:00,85.0,63.0,29.97,South,175,3.0,8.0,47,-99.99,,,-99.99,,2013-09-29 18:22:00,
2013-09-29 14:42:00,85.0,64.0,29.96,SW,220,5.0,11.0,48,-99.99,,,-99.99,,2013-09-29 18:42:00,
2013-09-29 15:22:00,86.0,64.0,29.95,SSE,151,5.0,10.0,47,-99.99,,,-99.99,,2013-09-29 19:22:00,
2013-09-29 15:32:00,86.0,64.0,29.95,SSE,151,5.0,10.0,47,-99.99,,,-99.99,,2013-09-29 19:32:00,
2013-09-29 15:52:00,86.0,62.0,29.94,SSW,196,5.0,9.0,45,-99.99,,,-99.99,,2013-09-29 19:52:00,
2013-09-29 16:22:00,86.0,58.0,29.93,WNW,284,9.0,43.0,38,-99.99,,,-99.99,,2013-09-29 20:22:00,
2013-09-29 16:43:00,87.0,-99.9,29.92,WSW,258,7.0,34.0,35,-99.99,,,-99.99,,2013-09-29 20:43:00,
2013-09-29 17:22:00,87.0,57.0,29.92,WSW,258,5.0,9.0,36,-99.99,,,-99.99,,2013-09-29 21:22:00,
2013-09-29 17:34:00,87.0,57.0,29.92,WSW,258,5.0,9.0,36,-99.99,,,-99.99,,2013-09-29 21:34:00,
2013-09-29 18:14:00,86.0,62.0,29.92,ENE,78,6.0,9.0,44,-99.99,,,-99.99,,2013-09-29 22:14:00,
2013-09-29 18:24:00,86.0,62.0,29.92,ENE,78,6.0,9.0,44,-99.99,,,-99.99,,2013-09-29 22:24:00,
2013-09-29 18:53:00,82.0,68.0,29.93,ENE,74,10.0,30.0,62,-99.99,,,-99.99,,2013-09-29 22:53:00,
2013-09-29 19:23:00,79.0,69.0,29.94,ENE,72,9.0,31.0,70,-99.99,,,-99.99,,2013-09-29 23:23:00,
2013-09-29 19:34:00,79.0,69.0,29.94,ENE,72,9.0,31.0,70,-99.99,,,-99.99,,2013-09-29 23:34:00,
2013-09-29 19:53:00,77.0,68.0,29.94,ENE,64,6.0,10.0,74,-99.99,,,-99.99,,2013-09-29 23:53:00,
2013-09-29 20:22:00,76.0,68.0,29.94,ENE,64,5.0,7.0,75,-99.99,,,-99.99,,2013-09-30 00:22:00,
2013-09-29 20:32:00,76.0,68.0,29.94,ENE,64,5.0,7.0,75,-99.99,,,-99.99,,2013-09-30 00:32:00,
2013-09-29 20:52:00,75.0,68.0,29.95,NE,55,5.0,6.0,79,-99.99,,,-99.99,,2013-09-30 00:52:00,
2013-09-29 21:22:00,74.0,68.0,29.96,NE,42,5.0,8.0,81,-99.99,,,-99.99,,2013-09-30 01:22:00,
2013-09-29 21:52:00,74.0,68.0,29.96,ENE,64,4.0,5.0,82,-99.99,,,-99.99,,2013-09-30 01:52:00,
2013-09-29 22:22:00,73.0,68.0,29.98,NNE,24,4.0,6.0,84,-99.99,,,-99.99,,2013-09-30 02:22:00,
2013-09-29 22:32:00,73.0,68.0,29.98,NNE,24,4.0,6.0,84,-99.99,,,-99.99,,2013-09-30 02:32:00,
2013-09-29 22:52:00,73.0,68.0,29.99,NE,43,2.0,4.0,83,-99.99,,,-99.99,,2013-09-30 02:52:00,
2013-09-29 23:22:00,73.0,68.0,29.99,East,89,2.0,3.0,85,-99.99,,,-99.99,,2013-09-30 03:22:00,
2013-09-29 23:34:00,73.0,68.0,29.99,East,89,2.0,3.0,85,-99.99,,,-99.99,,2013-09-30 03:34:00,
2013-09-29 23:55:00,71.0,68.0,29.98,ENE,75,1.0,3.0,87,-99.99,,,-99.99,,2013-09-30 03:55:00,